Location: Barbison
(48.4435°N, 2.6031°E)
Time: 14:36:36
(UTC+00:00)

Daily predictions for brighter satellites

Satellite Brightness Start Highest point End
(mag) Time Altitude Azimuth Time Altitude Azimuth Time Altitude Azimuth
Meteor 2-3 Rocket 3.8 19:42:57 10° N 19:48:33 63° ENE 19:54:08 10° SSE
CZ-4C R/B 2.3 19:46:06 10° S 19:49:43 31° ESE 19:54:08 10° NE
Cosmos 2084 4.1 19:47:22 10° SW 19:51:28 59° NW 19:55:34 10° NE
Cosmos 292 Rocket 3.8 19:46:56 10° NNW 19:51:42 68° ENE 19:56:24 10° SSE
CSL-04 Rocket 4.3 19:47:10 10° S 19:52:37 61° WSW 19:58:02 10° NNW
Cosmos 1833 Rocket 2.7 19:47:18 10° SSW 19:52:54 80° ESE 19:58:32 10° NNE
CZ-4B DEB 4.3 19:47:34 10° SSE 19:53:06 90° WSW 19:58:40 10° NNW
ATLAS 2AS CENTAUR R/B 2.9 19:47:11 10° SW 19:54:10 80° NW 20:01:02 10° NE
CZ-4B R/B 3.4 19:49:57 10° SSE 19:55:35 71° ENE 20:01:11 10° N
Okean-O 3.4 19:53:37 10° SE 19:57:36 36° ENE 20:01:37 10° N
Cosmos 1892 Rocket 4.5 19:53:54 10° N 19:57:49 32° ENE 20:01:40 10° SE
USA 305 3.7 19:57:05 10° WNW 20:00:58 41° NNE 20:04:37 10° E
Cosmos 1455 Rocket 4.0 19:57:49 10° SSE 20:01:39 30° E 20:05:30 10° NNE
Gbstr 26 Del rocket 3.3 19:56:31 10° WNW 20:01:56 80° NNE 20:06:19 10° ESE
SL-4 R/B 2.6 19:58:59 10° WNW 20:02:36 42° SSW 20:06:16 10° SE
Spot 2 Rocket 3.9 19:58:28 10° SE 20:03:16 48° ENE 20:08:06 10° N
MetOp-B 4.2 19:58:10 10° SSE 20:03:31 84° ENE 20:08:54 10° NNW
Cosmos 2016 Rocket 4.5 20:00:57 10° SSE 20:06:44 41° E 20:12:29 10° NNE
Cosmos 2173 Rocket 4.0 20:02:30 10° S 20:08:34 69° E 20:14:45 10° NNE
Okean 1 Rocket 3.0 20:04:18 10° S 20:08:38 68° E 20:13:03 10° NNE
ADEOS 3.6 20:04:06 10° SSE 20:09:18 83° ENE 20:14:33 10° NNW
Helios 1A Rocket 2.5 20:12:20 10° N 20:15:30 73° WNW 20:18:38 10° SSW
ERS-1 Rocket 3.6 20:19:17 10° S 20:24:12 57° W 20:29:10 10° NNW
SKYMED 3 4.3 20:21:12 10° NNE 20:25:09 89° E 20:29:07 10° SSW
SJ 16-02 4.2 20:25:54 10° WNW 20:27:17 11° W 20:28:40 10° WSW
ATLAS 3B R/B 3.2 20:20:24 10° NW 20:28:08 70° SW 20:34:58 12° SSE
Cosmos 2369 4.3 20:23:02 10° NNW 20:28:31 45° NE 20:33:06 14° ESE
Cosmos 2322 Rocket 4.3 20:25:05 10° N 20:28:40 17° NE 20:32:16 10° ENE
DEBRIS 2.9 20:28:09 10° WSW 20:30:50 69° SSE 20:37:49 10° ENE
Cosmos 1452 Rocket 3.5 20:26:09 10° S 20:31:17 62° ESE 20:36:27 10° NNE
Cosmos 2082 Rocket 2.8 20:26:09 10° S 20:31:17 36° ESE 20:36:27 10° NE
Cosmos 1741 Rocket 4.1 20:26:34 10° NNW 20:31:55 87° WSW 20:36:43 13° SSE
SL-08 R/B 3.3 20:28:40 10° NNE 20:33:33 85° ESE 20:38:20 10° SSW
Sich 1 Rocket 3.8 20:31:54 10° SSW 20:36:14 73° W 20:40:37 10° N
Cosmos 968 Rocket 4.3 20:32:16 10° NNW 20:37:19 49° WSW 20:42:20 10° S
Cosmos 1331 Rocket 4.1 20:32:55 10° SSW 20:38:10 85° WNW 20:43:26 10° NNE
Cosmos 1802 Rocket 3.9 20:32:01 10° S 20:38:13 80° E 20:44:22 10° N
YAOGAN 11 4.1 20:35:34 10° NNE 20:39:58 67° ESE 20:44:23 10° S
CZ-4B R/B 4.0 20:36:55 17° SE 20:40:16 42° ENE 20:44:47 10° N
Cosmos 1302 Rocket 4.1 20:42:34 10° S 20:47:34 53° ESE 20:52:36 10° NNE
MOS 1-B 4.5 20:44:43 11° SSE 20:50:14 78° WSW 20:56:05 10° NNW
Cosmos 1697 Rocket 3.9 20:45:18 10° NW 20:50:23 36° WSW 20:55:26 10° S
CZ-2C R/B 3.4 20:49:47 21° E 20:50:31 23° ENE 20:52:50 10° NNE
Cosmos 2151 4.1 20:48:22 10° NNE 20:51:55 27° ENE 20:53:43 20° ESE
Terra 3.2 20:48:17 10° SSW 20:52:32 34° W 20:56:50 10° NNW
Meteor 2-12 Rocket 4.4 20:46:32 10° N 20:52:38 79° E 20:57:39 16° SSE
NOSS 3-3 (A) 4.1 20:48:58 10° S 20:53:38 37° ESE 20:59:04 10° NE
SL-16 R/B 3.3 20:51:30 10° NNW 20:56:41 34° NE 21:00:34 16° ESE
COSMOS 2406 4.1 20:54:43 20° SE 20:57:27 29° ESE 21:02:17 10° NE
Cosmos 1743 2.9 20:58:25 10° NNW 21:01:20 46° W 21:03:16 18° SSW
Cosmos 2228 2.8 20:58:22 15° S 21:01:47 78° E 21:05:54 10° NNE
USA 186 2.5 21:00:42 19° SSW 21:02:12 38° W 21:04:48 10° NNW
USA 306 3.5 20:59:32 10° SW 21:00:59 20° SSW 21:00:59 20° SSW
Cosmos 1782 2.5 21:00:48 14° SSW 21:03:47 78° W 21:07:19 10° N
SPOT 3 Rocket 3.5 21:02:10 20° SSE 21:05:46 83° ENE 21:10:57 10° NNW
Cosmos 44 Rocket 3.8 21:05:11 10° SW 21:10:15 69° NW 21:15:27 10° NE
Cosmos 2333 Rocket 3.1 21:06:48 10° NNW 21:12:08 39° NE 21:15:41 19° ESE
Cosmos 1626 Rocket 3.6 21:08:19 10° N 21:12:38 60° ENE 21:14:41 29° SSE
Cosmos 1607 3.8 21:08:48 10° SSW 21:14:56 78° SE 21:21:12 10° NE
CZ-4B R/B 2.4 21:13:30 31° S 21:14:57 77° WSW 21:18:22 10° NNW
Cosmos 1980 Rocket 2.9 21:13:41 10° NW 21:19:07 47° WSW 21:23:05 18° S
Okean O Rocket 2.9 21:15:58 12° SSW 21:19:35 34° W 21:23:33 10° NNW
ISS -3.9 21:17:14 10° WSW 21:20:34 83° SSE 21:23:56 10° ENE
Cosmos 2233 Rocket 4.1 21:14:52 10° SSW 21:21:05 80° W 21:27:18 10° N
Helios 1B rocket 4.2 21:21:08 13° ENE 21:22:01 14° ENE 21:23:57 10° NNE
NOSS 3-3 (C) 3.8 21:17:31 12° SSW 21:22:04 50° ESE 21:27:56 10° NE
USA 305 2.4 21:22:30 10° WNW 21:26:36 75° SSW 21:27:30 47° SE
Cosmos 1933 3.6 21:27:23 39° SE 21:28:07 44° E 21:31:45 10° NNE
IRS-1C Rocket 4.1 21:25:22 25° S 21:28:31 81° WSW 21:33:50 10° NNW
Geosat 4.3 21:26:12 10° NE 21:30:59 43° ESE 21:32:49 31° SSE
Tsikada Rocket 4.3 21:25:48 10° NNW 21:31:52 61° W 21:36:32 18° SSW
Okean-O 4.4 21:30:19 10° SSW 21:33:56 27° W 21:37:40 10° NW
Ariane Rocket 3.1 21:33:20 26° S 21:36:10 70° WSW 21:41:14 10° NNW
Cosmos 2098 Rocket 3.9 21:34:55 32° SE 21:36:24 40° E 21:40:42 10° NNE
NOSS 3-4 (A) 4.4 21:30:14 10° NW 21:36:33 50° NE 21:42:12 17° ESE
NOSS 3-4 (C) 4.4 21:30:51 10° NW 21:37:10 50° NE 21:42:51 17° ESE
CZ-4C R/B 3.1 21:33:25 10° WSW 21:37:37 44° NW 21:43:01 10° NE
Nadezhda 4 Rocket 4.4 21:33:19 10° N 21:39:14 48° ENE 21:42:00 29° SE
Cosmos 2360 Rocket 3.1 21:40:07 10° NNW 21:45:29 41° NE 21:48:24 24° ESE
Cosmos 2084 Rocket 3.7 21:41:51 10° NW 21:45:59 55° SW 21:47:04 42° S
Gbstr 26 Del rocket 4.0 21:43:41 10° WNW 21:47:54 31° SW 21:48:34 29° SSW
Cosmos 1461 4.2 21:50:45 21° ENE 21:50:45 21° ENE 21:52:27 10° ENE
Cosmos 1437 Rocket 2.3 21:48:46 63° SSE 21:49:15 79° E 21:52:49 10° NNE
Cosmos 1544 Rocket 3.6 21:49:37 31° SSW 21:51:39 74° W 21:56:00 10° N
USA 234 3.8 21:50:49 10° ENE 21:56:40 34° SE 21:57:36 32° SSE
Cosmos 2219 Rocket 3.3 21:57:05 10° NNW 22:02:17 36° NE 22:05:14 22° E
DNEPR-1 R/B 4.5 21:59:57 10° NW 22:05:18 66° NE 22:08:22 31° ESE
Cosmos 1805 2.8 22:02:09 10° N 22:05:16 75° NE 22:05:16 75° NE
BREEZE-M DEB (TANK) 3.4 22:03:51 10° W 22:04:53 20° W 22:04:53 20° W
Cosmos 1758 Rocket 4.5 22:03:00 10° NNW 22:07:07 42° W 22:08:49 29° SW
Cosmos 1777 Rocket 4.2 22:04:17 10° NNW 22:09:29 63° ENE 22:11:10 41° SE
Cosmos 1992 Rocket 4.5 22:05:20 14° SW 22:09:49 59° WNW 22:14:59 10° NNE
Cosmos 909 Rocket 4.3 22:04:09 10° SW 22:10:26 69° NW 22:16:58 10° NE
Cosmos 1503 Rocket 4.5 22:05:32 10° NNW 22:10:37 50° ENE 22:12:20 36° ESE
Cosmos 2322 Rocket 2.3 22:08:11 10° NNW 22:13:50 66° ENE 22:15:56 39° SE
Cosmos 2082 Rocket 3.3 22:09:49 10° SW 22:15:16 44° NW 22:20:44 10° NNE
Cosmos 1536 4.4 22:12:58 10° NNE 22:15:48 21° ENE 22:15:51 21° ENE
Cosmos 1464 Rocket 3.9 22:18:24 36° S 22:21:08 88° E 22:27:20 10° N
CZ-2C R/B 4.5 22:21:24 15° W 22:21:24 15° W 22:23:05 10° NW
Cosmos 1486 Rocket 3.9 22:17:18 10° NNW 22:22:35 89° ENE 22:24:02 50° SSE
Cosmos 1375 Rocket 4.4 22:18:45 23° SSW 22:22:59 80° ESE 22:29:36 10° NE
Cosmos 1825 Rocket 3.4 22:18:42 10° N 22:23:03 85° E 22:23:40 65° SSE
Cosmos 1953 Rocket 3.8 22:21:10 10° N 22:25:29 53° ENE 22:25:57 50° ESE
Meteor 1-5 Rocket 4.3 22:20:31 10° NNW 22:26:12 77° W 22:28:14 42° S
ALOS 2 3.6 22:27:20 31° E 22:28:10 34° ENE 22:32:07 10° N
Cosmos 2058 Rocket 4.0 22:28:26 33° E 22:28:26 33° E 22:32:14 10° NNE
ARIANE 5 R/B 3.4 22:27:36 37° E 22:28:23 41° ENE 22:32:33 10° N
Cosmos 2151 4.3 22:25:04 10° NNW 22:28:40 29° W 22:29:47 25° WSW
Spot 4 4.5 22:28:39 37° ESE 22:29:44 44° ENE 22:34:16 10° N
Cosmos 220 Rocket 3.7 22:29:24 71° SW 22:29:48 86° WNW 22:33:54 10° NNE
Cosmos 1602 Rocket 4.5 22:28:31 10° NNW 22:32:32 39° W 22:33:31 34° SW
Cosmos 2278 3.8 22:28:24 10° NNW 22:34:06 68° WSW 22:35:41 47° S
CSL-04 DEB 4.1 22:34:56 73° NNE 22:34:56 73° NNE 22:38:19 10° NNW
SL-16 R/B 2.7 22:35:30 10° NW 22:40:56 48° WSW 22:42:24 39° SSW
COSMOS 2406 3.9 22:36:39 14° SW 22:41:25 54° WNW 22:47:05 10° NNE
Cosmos 1092 Rocket 4.0 22:37:32 10° N 22:43:42 70° E 22:45:38 45° SSE
Helios 1A 3.1 22:40:01 10° N 22:43:53 59° WNW 22:44:22 54° WSW
CZ-2C R/B 3.6 22:45:34 10° NNE 22:49:58 62° ESE 22:50:07 62° ESE
Cosmos-2242 3.0 22:51:19 64° E 22:51:19 64° E 22:55:16 10° NNE
Aureole 1 Rocket 4.3 22:46:12 10° NNW 22:51:26 52° ENE 22:53:46 35° ESE
Okean 1 3.6 22:53:46 52° WNW 22:53:46 52° WNW 22:57:06 10° N
Helios 1B rocket 2.8 22:55:06 46° WNW 22:55:06 46° WNW 22:58:03 10° NNW
Cosmos 2034 Rocket 4.1 22:53:27 40° SSW 22:55:56 78° W 23:02:20 10° N
Cosmos 2333 Rocket 2.9 22:51:08 10° NW 22:56:27 41° WSW 22:57:41 37° SW
Cosmos 1271 Rocket 4.5 22:58:25 20° ENE 22:58:25 20° ENE 23:00:02 10° NE
ISS -2.8 22:54:18 10° W 22:57:24 46° NNW 22:57:24 46° NNW
CZ-2C R/B 4.0 22:56:33 23° E 22:58:34 30° ENE 23:03:05 10° N
Cosmos 1707 4.1 23:02:42 26° NNE 23:02:42 26° NNE 23:04:06 10° NNE
Cosmos 1975 4.2 22:59:09 10° NNE 23:02:05 26° ENE 23:02:05 26° ENE
Cosmos 1833 4.1 23:04:37 56° S 23:05:47 74° ESE 23:11:26 10° NNE
Meteor 2-2 Rocket 4.1 23:09:39 56° S 23:10:56 85° E 23:16:42 10° NNE
Cosmos 468 Rocket 4.3 23:11:08 50° ESE 23:11:28 50° ESE 23:16:33 10° NNE
Cosmos 2221 3.5 23:14:13 33° E 23:14:13 33° E 23:17:38 10° NNE
Cosmos 2297 Rocket 4.1 23:18:41 15° E 23:18:56 15° E 23:22:05 10° ENE
Cosmos 540 Rocket 3.4 23:18:15 60° SW 23:19:12 83° WNW 23:24:24 10° NNE
Cosmos 2322 4.3 23:13:46 10° NNW 23:19:19 49° NE 23:21:36 32° ESE
Cosmos 1634 Rocket 3.9 23:22:44 49° SSW 23:24:31 82° W 23:30:45 10° N
Cosmos 1461 4.2 23:24:21 27° WNW 23:25:24 32° NW 23:28:46 10° NNE
Cosmos 2279 Rocket 3.9 23:25:15 51° SSE 23:26:52 76° E 23:33:09 10° NNE
NOSS 3-4 (A) 4.1 23:21:02 10° NW 23:27:37 52° WSW 23:29:36 42° SSW
NOSS 3-4 (C) 4.1 23:21:38 10° NW 23:28:16 53° WSW 23:30:15 43° SSW
Cosmos 1898 Rocket 3.9 23:24:11 10° NNW 23:29:17 55° ENE 23:30:35 43° ESE
Cosmos 2360 Rocket 2.9 23:24:12 10° NW 23:29:27 39° WSW 23:30:08 37° SW
RESURS DK-1 3.5 23:27:54 10° NNW 23:31:35 35° NE 23:32:11 33° ENE
USA 290 4.1 23:35:47 28° NW 23:35:47 28° NW 23:38:07 10° N
USA 234 3.2 23:33:33 10° NE 23:40:08 87° NNW 23:44:54 20° WSW
Meteor 1-11 Rocket 4.0 23:36:42 10° N 23:42:22 58° ENE 23:43:52 44° SE
Cosmos 1763 Rocket 4.2 23:43:38 34° WSW 23:45:28 48° WNW 23:50:36 10° NNE
Cosmos 2219 Rocket 2.6 23:40:58 10° NW 23:46:21 46° WSW 23:46:54 44° SW
ARGOS Delta rocket 4.2 23:41:34 10° N 23:46:32 64° WNW 23:47:34 52° SW
Cosmos 1812 Rocket 3.7 23:48:46 60° E 23:48:46 60° E 23:53:03 10° NNE
BREEZE-M DEB (TANK) 4.0 23:35:36 10° WSW 23:50:29 89° NNW 23:54:12 10° ENE
Cosmos 1536 4.1 23:47:49 10° NNW 23:50:22 28° WNW 23:50:22 28° WNW
Cosmos 1842 4.4 23:55:54 31° NNW 23:55:54 31° NNW 23:57:56 10° N
Intercosmos 24 4.5 23:51:45 10° N 23:55:54 45° ENE 23:55:56 45° ENE
Cosmos 1470 3.8 23:53:16 10° NNW 23:55:21 33° NW 23:55:21 33° NW
